EW8865 Weather Reports


Display with metric or nautical units.
time (UTC)temp
F
wind
direction
speed
MPH
gust
MPH
rain 1hr
in
rain 24hr
in
rain mn
in
humidity
%
barometer
mb
20260507162004 56 264 3.0 7.0 0.00 0.00 0.00 68 1013.8
20260507161503 56 256 3.0 6.0 0.00 0.00 0.00 68 1013.8
20260507160504 56 255 3.0 5.0 0.00 0.00 0.00 69 1013.8
20260507155505 57 249 5.0 9.0 0.00 0.00 0.00 67 1013.8
20260507154503 57 268 5.0 10.0 0.00 0.00 0.00 66 1013.8
20260507154004 57 245 6.0 10.0 0.00 0.00 0.00 65 1013.8
20260507153504 57 200 5.0 7.0 0.00 0.00 0.00 64 1013.8
20260507153004 58 209 5.0 12.0 0.00 0.00 0.00 62 1013.8
20260507152504 58 209 6.0 12.0 0.00 0.00 0.00 62 1013.9
20260507152004 58 193 5.0 12.0 0.00 0.00 0.00 63 1013.9
20260507151504 58 204 6.0 10.0 0.00 0.00 0.00 61 1013.8
20260507151004 58 209 6.0 12.0 0.00 0.00 0.00 62 1013.8
20260507150503 58 173 6.0 12.0 0.00 0.00 0.00 61 1013.8
20260507150005 59 189 5.0 12.0 0.00 0.00 0.00 62 1013.8
20260507145503 59 147 6.0 12.0 0.00 0.00 0.00 61 1013.8
20260507145004 59 136 5.0 9.0 0.00 0.00 0.00 62 1013.8
20260507144503 59 205 4.0 10.0 0.00 0.00 0.00 63 1013.8
20260507144004 59 200 5.0 10.0 0.00 0.00 0.00 62 1013.8
20260507143504 59 205 6.0 14.0 0.00 0.00 0.00 61 1013.9
20260507143004 59 175 5.0 9.0 0.00 0.00 0.00 62 1013.9
20260507142503 59 175 6.0 12.0 0.00 0.00 0.00 61 1014.0
20260507141504 59 185 5.0 10.0 0.00 0.00 0.00 61 1014.1
20260507141004 59 147 5.0 10.0 0.00 0.00 0.00 63 1014.1
20260507140504 59 186 3.0 13.0 0.00 0.00 0.00 63 1014.1
20260507135004 60 182 4.0 12.0 0.00 0.00 0.00 62 1014.1
20260507134503 60 165 5.0 12.0 0.00 0.00 0.00 60 1014.0
20260507134003 60 206 8.0 10.0 0.00 0.00 0.00 61 1014.1
20260507133504 60 189 5.0 13.0 0.00 0.00 0.00 59 1014.0
20260507133004 60 148 7.0 13.0 0.00 0.00 0.00 59 1014.0
20260507132503 60 128 7.0 12.0 0.00 0.00 0.00 61 1014.0
20260507131503 60 127 5.0 17.0 0.00 0.00 0.00 60 1014.1
20260507131004 59 164 6.0 12.0 0.00 0.00 0.00 62 1014.0
20260507130504 59 187 5.0 12.0 0.00 0.00 0.00 62 1014.1
20260507130004 59 184 6.0 15.0 0.00 0.00 0.00 60 1014.1
20260507125504 60 176 7.0 15.0 0.00 0.00 0.00 61 1014.1
20260507125003 60 178 7.0 12.0 0.00 0.00 0.00 60 1014.1
20260507124504 60 201 7.0 15.0 0.00 0.00 0.00 61 1014.1
20260507124004 59 187 2.0 6.0 0.00 0.00 0.00 64 1014.1
20260507123004 59 177 6.0 12.0 0.00 0.00 0.00 63 1014.2
20260507122505 59 193 6.0 13.0 0.00 0.00 0.00 63 1014.2
20260507122004 59 181 6.0 12.0 0.00 0.00 0.00 62 1014.2
20260507121504 59 201 6.0 12.0 0.00 0.00 0.00 63 1014.2
20260507121003 59 178 5.0 16.0 0.00 0.00 0.00 62 1014.2
20260507120504 59 175 5.0 12.0 0.00 0.00 0.00 62 1014.3
20260507120005 60 199 6.0 12.0 0.00 0.00 0.00 61 1014.3
20260507115503 60 122 5.0 12.0 0.00 0.00 0.00 63 1014.2
20260507114004 59 164 5.0 9.0 0.00 0.00 0.00 62 1014.4
20260507113504 59 191 6.0 10.0 0.00 0.00 0.00 62 1014.4
20260507112503 61 182 5.0 9.0 0.00 0.00 0.00 60 1014.4
20260507111504 60 132 9.0 14.0 0.00 0.00 0.00 64 1014.4
20260507111004 60 150 5.0 12.0 0.00 0.00 0.00 65 1014.5
20260507110504 60 169 6.0 13.0 0.00 0.00 0.00 64 1014.5
20260507110003 59 195 5.0 12.0 0.00 0.00 0.00 65 1014.5
20260507105504 59 169 8.0 15.0 0.00 0.00 0.00 65 1014.6
20260507105004 59 179 7.0 16.0 0.00 0.00 0.00 64 1014.7
20260507104504 59 119 5.0 10.0 0.00 0.00 0.00 66 1014.7
20260507104003 59 173 8.0 15.0 0.00 0.00 0.00 63 1014.8
20260507103003 60 150 7.0 13.0 0.00 0.00 0.00 63 1014.7
20260507102504 60 122 5.0 10.0 0.00 0.00 0.00 63 1014.7
20260507101005 61 151 9.0 12.0 0.00 0.00 0.00 63 1014.7
20260507100004 60 141 6.0 9.0 0.00 0.00 0.00 67 1014.7
20260507095004 60 140 7.0 12.0 0.00 0.00 0.00 66 1014.7
20260507094503 59 124 4.0 9.0 0.00 0.00 0.00 68 1014.7
20260507094005 59 139 6.0 9.0 0.00 0.00 0.00 66 1014.6
20260507093003 59 132 8.0 14.0 0.00 0.00 0.00 66 1014.6
20260507092504 59 127 4.0 10.0 0.00 0.00 0.00 68 1014.6
20260507092004 58 123 4.0 12.0 0.00 0.00 0.00 69 1014.6
20260507091503 58 125 5.0 12.0 0.00 0.00 0.00 68 1014.7
20260507091004 58 168 6.0 10.0 0.00 0.00 0.00 67 1014.7
20260507090504 58 122 7.0 12.0 0.00 0.00 0.00 68 1014.7
20260507085504 57 127 5.0 10.0 0.00 0.00 0.00 70 1014.8
20260507085004 57 129 6.0 9.0 0.00 0.00 0.00 70 1014.7
20260507084504 56 140 3.0 8.0 0.00 0.00 0.00 73 1014.8
20260507084003 55 160 3.0 9.0 0.00 0.00 0.00 70 1014.8
20260507082504 53 104 3.0 8.0 0.00 0.00 0.00 75 1014.8
20260507081503 52 103 3.0 7.0 0.00 0.00 0.00 76 1014.8
20260507081004 52 101 3.0 8.0 0.00 0.00 0.00 76 1014.8
20260507080503 52 101 4.0 7.0 0.00 0.00 0.00 77 1014.8
20260507080004 51 89 4.0 8.0 0.00 0.00 0.00 78 1014.8
20260507075504 51 70 5.0 8.0 0.00 0.00 0.00 78 1014.8
20260507075004 51 105 4.0 6.0 0.00 0.00 0.00 78 1014.8
20260507074003 50 90 2.0 8.0 0.00 0.00 0.00 79 1014.9
20260507073503 50 99 3.0 7.0 0.00 0.00 0.00 80 1014.8
20260507073004 49 90 3.0 5.0 0.00 0.00 0.00 80 1014.8
20260507072503 49 75 2.0 6.0 0.00 0.00 0.00 80 1014.8
20260507071503 49 104 6.0 9.0 0.00 0.00 0.00 80 1014.8
20260507071003 49 101 6.0 12.0 0.00 0.00 0.00 80 1014.7
20260507070504 48 88 5.0 9.0 0.00 0.00 0.00 80 1014.8
20260507070009 48 96 4.0 7.0 0.00 0.00 0.00 80 1014.7
20260507065504 48 89 5.0 9.0 0.00 0.00 0.00 80 1014.7
20260507065004 48 94 5.0 9.0 0.00 0.00 0.00 81 1014.6
20260507064503 48 101 1.0 7.0 0.00 0.00 0.00 81 1014.6
20260507063503 48 93 2.0 6.0 0.00 0.00 0.00 81 1014.6
20260507063004 47 107 2.0 3.0 0.00 0.00 0.00 81 1014.6
20260507062503 47 115 2.0 3.0 0.00 0.00 0.00 81 1014.5
20260507062003 47 112 2.0 3.0 0.00 0.00 0.00 82 1014.5
20260507061004 47 93 1.0 2.0 0.00 0.00 0.00 82 1014.4
20260507055503 47 88 1.0 3.0 0.00 0.00 0.00 81 1014.4
20260507054504 47 89 2.0 3.0 0.00 0.00 0.00 81 1014.4
20260507052504 47 93 2.0 6.0 0.00 0.00 0.00 81 1014.2
20260507052003 47 94 2.0 3.0 0.00 0.00 0.00 81 1014.2
20260507051503 47 82 4.0 7.0 0.00 0.00 0.00 81 1014.3
20260507051003 47 86 2.0 7.0 0.00 0.00 0.00 81 1014.3
20260507050504 47 94 3.0 6.0 0.00 0.00 0.00 81 1014.3
20260507050005 47 59 3.0 7.0 0.00 0.00 0.00 80 1014.3
20260507045503 47 75 2.0 6.0 0.00 0.00 0.00 80 1014.2
20260507045004 47 65 3.0 8.0 0.00 0.00 0.00 80 1014.2
20260507044503 47 94 3.0 8.0 0.00 0.00 0.00 80 1014.2
20260507044003 47 98 3.0 7.0 0.00 0.00 0.00 80 1014.2
20260507043504 47 82 2.0 7.0 0.00 0.00 0.00 80 1014.1
20260507043004 47 92 3.0 7.0 0.00 0.00 0.00 80 1014.1
20260507042504 47 80 2.0 9.0 0.00 0.00 0.00 80 1014.2
20260507041503 47 81 3.0 9.0 0.00 0.00 0.00 80 1014.2
20260507041003 47 91 3.0 7.0 0.00 0.00 0.00 79 1014.2
20260507040504 47 79 4.0 7.0 0.00 0.00 0.00 79 1014.2
20260507040004 47 67 3.0 6.0 0.00 0.00 0.00 79 1014.2
20260507035504 47 94 2.0 8.0 0.00 0.00 0.00 79 1014.2
20260507035004 47 102 3.0 9.0 0.00 0.00 0.00 79 1014.1
20260507034504 47 113 2.0 7.0 0.00 0.00 0.00 79 1014.0
20260507034004 47 86 3.0 5.0 0.00 0.00 0.00 79 1014.0
20260507033503 47 82 4.0 8.0 0.00 0.00 0.00 79 1014.1
20260507033004 48 112 2.0 6.0 0.00 0.00 0.00 79 1014.2
20260507032504 48 115 3.0 7.0 0.00 0.00 0.00 79 1014.1
20260507032004 48 75 3.0 7.0 0.00 0.00 0.00 79 1014.1
20260507031503 48 87 2.0 7.0 0.00 0.00 0.00 78 1014.1
20260507031004 48 80 3.0 6.0 0.00 0.00 0.00 78 1014.2
20260507030503 48 89 2.0 3.0 0.00 0.00 0.00 78 1014.1
20260507030004 48 89 2.0 6.0 0.00 0.00 0.00 78 1014.2
20260507025503 48 94 2.0 3.0 0.00 0.00 0.00 78 1014.2
20260507025004 48 96 3.0 8.0 0.00 0.00 0.00 78 1014.2
20260507024503 48 61 4.0 8.0 0.00 0.00 0.00 78 1014.2
20260507024004 48 97 3.0 8.0 0.00 0.00 0.00 77 1014.2
20260507023503 48 86 2.0 6.0 0.00 0.00 0.00 77 1014.2
20260507023004 48 91 2.0 3.0 0.00 0.00 0.00 77 1014.2
20260507022504 48 95 2.0 6.0 0.00 0.00 0.00 77 1014.2
20260507022004 48 96 1.0 6.0 0.00 0.00 0.00 77 1014.2
20260507021504 48 78 3.0 7.0 0.00 0.00 0.00 77 1014.2
20260507021004 48 95 5.0 7.0 0.00 0.00 0.00 77 1014.2
20260507020503 48 93 3.0 8.0 0.00 0.00 0.00 77 1014.2
20260507020004 48 97 2.0 3.0 0.00 0.00 0.00 76 1014.2
20260507015504 48 94 3.0 6.0 0.00 0.00 0.00 76 1014.2
20260507015004 49 90 3.0 7.0 0.00 0.00 0.00 76 1014.2
20260507014004 49 93 3.0 8.0 0.00 0.00 0.00 76 1014.2
20260507013503 49 96 4.0 9.0 0.00 0.00 0.00 76 1014.1
20260507013004 49 112 5.0 9.0 0.00 0.00 0.00 75 1014.2
20260507012504 49 87 4.0 7.0 0.00 0.00 0.00 75 1014.2
20260507012004 49 98 3.0 7.0 0.00 0.00 0.00 75 1014.2
20260507011504 49 94 5.0 7.0 0.00 0.00 0.00 75 1014.3
20260507011003 49 95 4.0 7.0 0.00 0.00 0.00 75 1014.3
20260507010504 49 103 2.0 8.0 0.00 0.00 0.00 74 1014.3
20260507010004 49 100 5.0 8.0 0.00 0.00 0.00 74 1014.3
20260507005504 49 109 3.0 7.0 0.00 0.00 0.00 74 1014.3
20260507004504 49 119 2.0 6.0 0.00 0.00 0.00 73 1014.2
20260507003503 50 86 3.0 8.0 0.00 0.00 0.00 73 1014.2
20260507003004 50 119 5.0 8.0 0.00 0.00 0.00 72 1014.2
20260507002504 50 99 3.0 8.0 0.00 0.00 0.00 72 1014.3
20260507002004 50 90 5.0 8.0 0.00 0.00 0.00 72 1014.2
20260507001504 50 93 3.0 8.0 0.00 0.00 0.00 71 1014.3
20260507001004 50 89 5.0 9.0 0.00 0.00 0.00 71 1014.3
20260507000503 50 102 5.0 8.0 0.00 0.00 0.00 71 1014.3
20260507000004 50 98 5.0 8.0 0.00 0.00 0.00 70 1014.3
20260506235503 50 104 3.0 8.0 0.00 0.00 0.00 70 1014.3
20260506235004 50 94 2.0 8.0 0.00 0.00 0.00 70 1014.3
20260506234503 50 88 5.0 9.0 0.00 0.00 0.00 69 1014.3
20260506234003 50 104 3.0 8.0 0.00 0.00 0.00 69 1014.2
20260506233504 50 103 4.0 8.0 0.00 0.00 0.00 69 1014.2
20260506233003 50 113 3.0 6.0 0.00 0.00 0.00 68 1014.2
20260506231504 51 99 3.0 7.0 0.00 0.00 0.00 67 1014.2
20260506231003 50 99 3.0 7.0 0.00 0.00 0.00 67 1014.2
20260506230503 50 106 3.0 7.0 0.00 0.00 0.00 67 1014.1
20260506230004 50 103 3.0 7.0 0.00 0.00 0.00 67 1014.2
20260506225504 50 96 2.0 8.0 0.00 0.00 0.00 67 1014.2
20260506225004 50 111 2.0 3.0 0.00 0.00 0.00 67 1014.2
20260506224503 50 111 2.0 6.0 0.00 0.00 0.00 67 1014.2
20260506224004 50 108 2.0 6.0 0.00 0.00 0.00 68 1014.1
20260506223504 50 97 1.0 3.0 0.00 0.00 0.00 68 1014.1
20260506223003 50 97 1.0 3.0 0.00 0.00 0.00 68 1014.1
20260506222503 50 97 1.0 3.0 0.00 0.00 0.00 67 1014.0
20260506222004 50 97 1.0 3.0 0.00 0.00 0.00 68 1014.0
20260506221504 51 97 1.0 3.0 0.00 0.00 0.00 67 1014.0
20260506221004 51 120 2.0 3.0 0.00 0.00 0.00 67 1014.0
20260506220503 51 134 1.0 3.0 0.00 0.00 0.00 67 1013.9
20260506220004 51 134 2.0 3.0 0.00 0.00 0.00 66 1013.9
20260506215504 51 135 2.0 3.0 0.00 0.00 0.00 66 1013.9
20260506215004 51 135 1.0 2.0 0.00 0.00 0.00 67 1013.9
20260506214504 51 135 1.0 2.0 0.00 0.00 0.00 67 1013.9
20260506214004 51 135 1.0 3.0 0.00 0.00 0.00 66 1013.9
20260506213503 51 135 2.0 3.0 0.00 0.00 0.00 66 1013.9
20260506213003 51 135 2.0 3.0 0.00 0.00 0.00 66 1013.9
20260506212503 52 135 2.0 3.0 0.00 0.00 0.00 65 1013.8
20260506211003 52 135 1.0 3.0 0.00 0.00 0.00 65 1013.8
20260506210503 52 135 1.0 3.0 0.00 0.00 0.00 65 1013.7
20260506210004 52 138 2.0 3.0 0.00 0.00 0.00 64 1013.7
20260506205504 52 138 0.0 0.0 0.00 0.00 0.00 64 1013.7
20260506205004 53 138 2.0 2.0 0.00 0.00 0.00 63 1013.7
20260506204503 53 138 2.0 3.0 0.00 0.00 0.00 62 1013.7
20260506203505 53 138 2.0 3.0 0.00 0.00 0.00 63 1013.7
20260506203003 53 138 1.0 3.0 0.00 0.00 0.00 63 1013.6
20260506202503 53 138 1.0 3.0 0.00 0.00 0.00 64 1013.7
20260506202003 54 138 1.0 2.0 0.00 0.00 0.00 62 1013.6
20260506201503 54 138 1.0 2.0 0.00 0.00 0.00 62 1013.6
20260506200503 54 138 1.0 2.0 0.00 0.00 0.00 62 1013.5
20260506200004 54 138 1.0 2.0 0.00 0.00 0.00 61 1013.4
20260506195504 54 138 2.0 3.0 0.00 0.00 0.00 61 1013.4
20260506194504 55 138 1.0 2.0 0.00 0.00 0.00 59 1013.4
20260506194003 55 138 1.0 3.0 0.00 0.00 0.00 59 1013.3
20260506193504 55 138 2.0 3.0 0.00 0.00 0.00 58 1013.3
20260506193004 55 137 2.0 3.0 0.00 0.00 0.00 58 1013.2
20260506192504 55 141 1.0 3.0 0.00 0.00 0.00 58 1013.2
20260506192004 55 134 1.0 2.0 0.00 0.00 0.00 57 1013.3
20260506191503 56 134 1.0 3.0 0.00 0.00 0.00 56 1013.2
20260506191003 56 134 1.0 3.0 0.00 0.00 0.00 57 1013.2
20260506190005 56 134 2.0 3.0 0.00 0.00 0.00 56 1013.2
20260506185505 56 134 2.0 3.0 0.00 0.00 0.00 56 1013.2
20260506185003 56 134 1.0 3.0 0.00 0.00 0.00 56 1013.1
20260506184503 56 134 2.0 3.0 0.00 0.00 0.00 57 1013.1
20260506183504 56 132 3.0 5.0 0.00 0.00 0.00 56 1013.1
20260506183004 56 138 2.0 3.0 0.00 0.00 0.00 55 1013.1
20260506182505 56 132 2.0 3.0 0.00 0.00 0.00 56 1013.1
20260506182004 57 135 3.0 3.0 0.00 0.00 0.00 55 1013.0
20260506181503 57 137 3.0 7.0 0.00 0.00 0.00 56 1013.0
20260506181004 57 124 1.0 3.0 0.00 0.00 0.00 57 1013.0
20260506180504 57 127 2.0 3.0 0.00 0.00 0.00 57 1013.0
20260506180005 57 138 2.0 5.0 0.00 0.00 0.00 56 1013.0
20260506175503 57 130 2.0 5.0 0.00 0.00 0.00 56 1012.9
20260506175003 57 125 2.0 5.0 0.00 0.00 0.00 55 1012.9
20260506174503 57 124 3.0 7.0 0.00 0.00 0.00 53 1012.9
20260506174003 57 113 4.0 8.0 0.00 0.00 0.00 52 1012.9
20260506173504 57 109 2.0 6.0 0.00 0.00 0.00 53 1012.9
20260506172503 58 65 2.0 3.0 0.00 0.00 0.00 53 1012.8
20260506172004 58 65 3.0 7.0 0.00 0.00 0.00 53 1012.8
20260506171503 58 117 2.0 3.0 0.00 0.00 0.00 52 1012.8
20260506171003 58 137 2.0 3.0 0.00 0.00 0.00 53 1012.7
20260506170004 58 138 2.0 3.0 0.00 0.00 0.00 54 1012.8
20260506165504 58 139 1.0 3.0 0.00 0.00 0.00 51 1012.7
20260506164503 59 113 5.0 8.0 0.00 0.00 0.00 53 1012.7
20260506164004 59 126 5.0 8.0 0.00 0.00 0.00 52 1012.7
20260506162503 59 127 3.0 7.0 0.00 0.00 0.00 50 1012.7